[[{"header":{"parameterUnit":"m.s-1","parameterCategory":2,"la1":30.2992,"la2":30.254,"lo1":-89.0895,"lo2":-89.0443,"dy":0.0025,"dx":0.0025,"nx":19,"ny":19,"refTime":"2026-04-15T03:00:00:Z","depth":"0","parameterNumber":2,"parameterNumberName":"U-component_of_CURRENTS"},"data":[0,0,0,0.3338,0.3339,0.3373,0.3373,0.3429,0.343,0,0,0,0,0,0,0,0,0,0,0,0.333,0.333,0.3338,0.3339,0.3373,0.3373,0.3429,0.343,0,0,0,0,0,0,0,0,0,0,0,0.333,0.333,0.333,0.3339,0.3373,0.3373,0.3429,0.34,0,0,0,0,0,0,0,0,0,0,0.3366,0.3349,0.333,0.333,0.3339,0.3373,0.3373,0.3399,0.3402,0.3417,0,0.3425,0,0.3428,0.3434,0.3434,0,0,0,0.334,0.3346,0.3362,0.3331,0.3339,0.3373,0.3358,0.3401,0.3404,0.3421,0.3426,0.3428,0.3429,0.3434,0.3434,0.356,0.3561,0,0,0.3338,0.333,0.3359,0.3364,0.3353,0.3357,0.3359,0.3403,0.3405,0.3426,0.3429,0.343,0.3435,0.3435,0.3559,0.3561,0,0,0,0.3332,0.3329,0.3343,0.3362,0.3367,0.3358,0.336,0.3403,0.341,0.343,0.343,0.3435,0.3436,0.3558,0.356,0.3625,0,0,0,0.3331,0.3325,0.3342,0.3337,0.3366,0.3382,0.3359,0.3407,0.3412,0.343,0.3435,0.3436,0.3557,0.3559,0.3621,0.3629,0,0,0,0.3327,0.3324,0.3331,0.3336,0.3351,0.3381,0.339,0.3408,0.3412,0.3434,0.3436,0.3557,0.3559,0.3617,0.3624,0.3704,0,0,0,0.3314,0.3318,0.3331,0.3347,0.3351,0.3403,0.339,0.3428,0.3451,0.3435,0.3557,0.356,0.3616,0.3621,0.37,0.3581,0.359,0,0,0.331,0.3317,0.333,0.3343,0.3386,0.3398,0.3466,0.3487,0.3492,0.3541,0.3544,0.3622,0.3623,0.3703,0.371,0.3714,0,0,0,0.3324,0.3326,0.3347,0.3373,0.3421,0.3481,0.3504,0.3546,0.3613,0.3515,0.3649,0.3648,0.3696,0.3618,0.3622,0.3417,0.357,0.357,0.357,0.326,0.3307,0.3337,0.3401,0.3454,0.3542,0.3608,0.367,0.3665,0.3725,0.3723,0.3852,0.377,0.3771,0.3562,0.3757,0.3758,0.3758,0.3758,0.3241,0.3253,0.3336,0.3381,0.3476,0.3544,0.37,0.374,0.3866,0.3829,0.3874,0.3715,0.3779,0.3555,0.3763,0.3762,0.3761,0.3761,0.3761,0.3184,0.32,0.324,0.3328,0.3427,0.3552,0.3687,0.3808,0.3904,0.3965,0.3894,0.3891,0.3675,0.4001,0.4001,0.4001,0.4002,0.4002,0.4002,0.3098,0.3147,0.318,0.3285,0.3345,0.3477,0.3695,0.3798,0.3918,0.3951,0.395,0.3686,0.3926,0.3895,0.4009,0.4008,0.4007,0.4006,0.4006,0.3018,0.3052,0.3097,0.315,0.3297,0.335,0.3584,0.3728,0.387,0.389,0.3676,0.3953,0.3921,0.3915,0.3884,0.3989,0.3989,0.3989,0.3989,0.2953,0.2981,0.3017,0.3083,0.3191,0.3294,0.3294,0.3418,0.3518,0.3494,0.3556,0.343,0.344,0.3373,0.3379,0.3335,0.3299,0.3298,0.3297,0.2907,0.2934,0.2926,0.3005,0.3127,0.3172,0.3051,0.2929,0.3081,0.3252,0.3299,0.3329,0.3129,0.3161,0.3041,0.3065,0.2988,0,0]},{"header":{"parameterUnit":"m.s-1","parameterCategory":2,"la1":30.2992,"la2":30.254,"lo1":-89.0895,"lo2":-89.0443,"dy":0.0025,"dx":0.0025,"nx":19,"ny":19,"refTime":"2026-04-15T03:00:00:Z","depth":"0","parameterNumber":3,"parameterNumberName":"V-component_of_CURRENTS"},"data":[0,0,0,0.0407,0.0407,0.0441,0.0441,0.0472,0.0473,0,0,0,0,0,0,0,0,0,0,0,0.0399,0.0399,0.0406,0.0407,0.0441,0.0441,0.0472,0.0473,0,0,0,0,0,0,0,0,0,0,0,0.0399,0.0399,0.0399,0.0407,0.0441,0.0441,0.0472,0.0451,0,0,0,0,0,0,0,0,0,0,0.042,0.041,0.0399,0.0399,0.0407,0.0441,0.0441,0.045,0.0452,0.0453,0,0.0459,0,0.0463,0.0474,0.0474,0,0,0,0.0411,0.0408,0.0419,0.0399,0.0408,0.0441,0.0427,0.0451,0.0454,0.0456,0.046,0.0461,0.0464,0.0474,0.0474,0.0551,0.0552,0,0,0.0409,0.0403,0.0417,0.042,0.0418,0.0426,0.0428,0.0453,0.0455,0.046,0.0462,0.0464,0.0474,0.0475,0.055,0.0551,0,0,0,0.0401,0.0402,0.0412,0.0419,0.0424,0.0426,0.0429,0.0454,0.0458,0.0462,0.0464,0.0475,0.0475,0.055,0.0551,0.0644,0,0,0,0.04,0.0397,0.0411,0.0408,0.0424,0.044,0.0429,0.0456,0.0459,0.0464,0.0475,0.0475,0.0549,0.055,0.064,0.0703,0,0,0,0.0397,0.0396,0.0401,0.0407,0.042,0.044,0.0445,0.0457,0.046,0.0474,0.0475,0.0548,0.055,0.0636,0.0696,0.0791,0,0,0,0.0388,0.0418,0.0401,0.0438,0.0419,0.0477,0.0445,0.0484,0.0502,0.0475,0.0549,0.055,0.0635,0.0691,0.0786,0.0889,0.0921,0,0,0.0426,0.0422,0.0447,0.0433,0.0499,0.0473,0.055,0.0553,0.0525,0.0538,0.054,0.0641,0.0695,0.079,0.0981,0.1011,0,0,0,0.046,0.0479,0.0496,0.0526,0.0552,0.0601,0.0595,0.0602,0.0628,0.0541,0.0648,0.0679,0.0736,0.0787,0.0811,0.0666,0.0558,0.0558,0.0558,0.051,0.0527,0.0586,0.0617,0.0654,0.0693,0.0737,0.0744,0.0695,0.0723,0.076,0.0903,0.0958,0.0977,0.0826,0.0752,0.0752,0.0752,0.0753,0.0588,0.0631,0.0658,0.0719,0.0764,0.0825,0.0878,0.0869,0.0941,0.0858,0.0908,0.0888,0.1009,0.0838,0.0759,0.0758,0.0757,0.0756,0.0756,0.0629,0.0658,0.0685,0.0781,0.0876,0.0928,0.1076,0.1071,0.1046,0.1099,0.116,0.1158,0.1007,0.1125,0.1126,0.1127,0.1127,0.1128,0.1128,0.0665,0.0699,0.0775,0.0863,0.0947,0.1077,0.1203,0.1284,0.1337,0.1297,0.1297,0.1051,0.1017,0.1001,0.1139,0.1137,0.1136,0.1135,0.1134,0.074,0.0748,0.0865,0.0946,0.1148,0.1351,0.1441,0.1628,0.166,0.1703,0.135,0.1403,0.1393,0.1373,0.1366,0.1591,0.1591,0.1591,0.1591,0.0792,0.0803,0.0973,0.1124,0.1322,0.149,0.1812,0.1921,0.175,0.1597,0.1452,0.1348,0.1336,0.1312,0.1294,0.128,0.1478,0.1477,0.1477,0.0861,0.0901,0.1041,0.1181,0.1409,0.1671,0.1992,0.2106,0.1741,0.1449,0.1231,0.1236,0.105,0.1043,0.0972,0.0958,0.0923,0,0]}],[{"header":{"parameterUnit":"m.s-1","parameterCategory":2,"la1":30.2992,"la2":30.254,"lo1":-89.0895,"lo2":-89.0443,"dy":0.0025,"dx":0.0025,"nx":19,"ny":19,"refTime":"2026-04-15T03:00:00:Z","depth":"2","parameterNumber":2,"parameterNumberName":"U-component_of_CURRENTS"},"data":[0,0,0,0.2575,0.2576,0.263,0.263,0.2716,0.2717,0,0,0,0,0,0,0,0,0,0,0,0.2563,0.2564,0.2574,0.2576,0.263,0.263,0.2716,0.2717,0,0,0,0,0,0,0,0,0,0,0,0.2563,0.2564,0.2565,0.2576,0.2629,0.263,0.2716,0.2671,0,0,0,0,0,0,0,0,0,0,0.2616,0.2608,0.2564,0.2565,0.2576,0.2629,0.263,0.2668,0.2674,0.2697,0,0.2714,0,0.2716,0.2723,0.2724,0,0,0,0.2575,0.2604,0.2614,0.2565,0.2577,0.2629,0.2605,0.2671,0.2677,0.2704,0.2715,0.2718,0.2718,0.2724,0.2725,0.2842,0.2842,0,0,0.2572,0.2577,0.2609,0.2617,0.2603,0.2603,0.2607,0.2674,0.2689,0.2716,0.272,0.2719,0.2725,0.2725,0.2841,0.2842,0,0,0,0.2564,0.2575,0.2583,0.2614,0.2622,0.2605,0.2609,0.2686,0.2688,0.2721,0.272,0.2725,0.2726,0.284,0.2841,0.2916,0,0,0,0.2562,0.257,0.2582,0.2586,0.2621,0.2653,0.2619,0.2683,0.2691,0.272,0.2725,0.2727,0.284,0.2841,0.2912,0.2915,0,0,0,0.2559,0.257,0.2578,0.2586,0.2608,0.2652,0.2658,0.2685,0.269,0.2724,0.2728,0.2839,0.2841,0.2909,0.291,0.3022,0,0,0,0.2558,0.257,0.2579,0.2608,0.2608,0.2648,0.2657,0.2701,0.2733,0.2726,0.284,0.2841,0.2908,0.2908,0.3018,0.2826,0.2829,0,0,0.2565,0.2572,0.2589,0.2598,0.2624,0.264,0.2702,0.275,0.2761,0.2817,0.282,0.2914,0.291,0.3021,0.2906,0.2906,0,0,0,0.2586,0.2585,0.2601,0.2624,0.2662,0.2722,0.2756,0.2793,0.2872,0.2786,0.2921,0.2915,0.2984,0.286,0.2861,0.2848,0.2848,0.2847,0.2847,0.2542,0.2575,0.2604,0.2652,0.2698,0.2779,0.2843,0.2901,0.2909,0.2967,0.2983,0.312,0.2987,0.2986,0.3006,0.3007,0.3007,0.3007,0.3007,0.2526,0.2544,0.2606,0.2647,0.2736,0.2803,0.2941,0.2985,0.3105,0.3065,0.3131,0.295,0.299,0.3013,0.3012,0.3011,0.3011,0.301,0.301,0.2487,0.2504,0.2547,0.263,0.2718,0.2837,0.2949,0.3066,0.3165,0.3222,0.3133,0.3129,0.3175,0.329,0.3291,0.3292,0.3292,0.3292,0.3293,0.2433,0.2475,0.2509,0.2607,0.2658,0.2791,0.2978,0.3061,0.3165,0.3181,0.318,0.3216,0.3207,0.3192,0.3301,0.3299,0.3298,0.3298,0.3297,0.2378,0.2396,0.2445,0.2489,0.2604,0.2605,0.2841,0.2956,0.3109,0.3112,0.3173,0.3173,0.3136,0.3131,0.3114,0.3197,0.3197,0.3197,0.3197,0.2317,0.2338,0.2359,0.2389,0.2462,0.2504,0.2486,0.2578,0.2787,0.2833,0.2849,0.2707,0.2719,0.2651,0.2657,0.2627,0.2585,0.2583,0.2582,0.2266,0.2286,0.227,0.2307,0.2347,0.2338,0.218,0.2091,0.2264,0.2559,0.2745,0.3155,0.2983,0.2988,0.2909,0.2909,0.2872,0,0]},{"header":{"parameterUnit":"m.s-1","parameterCategory":2,"la1":30.2992,"la2":30.254,"lo1":-89.0895,"lo2":-89.0443,"dy":0.0025,"dx":0.0025,"nx":19,"ny":19,"refTime":"2026-04-15T03:00:00:Z","depth":"2","parameterNumber":3,"parameterNumberName":"V-component_of_CURRENTS"},"data":[0,0,0,0.0169,0.0169,0.0186,0.0186,0.0192,0.0192,0,0,0,0,0,0,0,0,0,0,0,0.0169,0.0169,0.0169,0.0169,0.0186,0.0186,0.0192,0.0192,0,0,0,0,0,0,0,0,0,0,0,0.0169,0.0169,0.0169,0.0169,0.0186,0.0186,0.0192,0.0185,0,0,0,0,0,0,0,0,0,0,0.0171,0.0171,0.0169,0.0169,0.0169,0.0186,0.0186,0.0185,0.0185,0.0179,0,0.0183,0,0.0183,0.0192,0.0192,0,0,0,0.0175,0.0171,0.0173,0.0169,0.0169,0.0186,0.018,0.0185,0.0186,0.018,0.0183,0.0183,0.0183,0.0192,0.0192,0.0223,0.0224,0,0,0.0174,0.0173,0.0173,0.0174,0.0175,0.0179,0.018,0.0186,0.0188,0.0183,0.0183,0.0183,0.0192,0.0192,0.0223,0.0223,0,0,0,0.0168,0.0172,0.0175,0.0173,0.0175,0.018,0.0181,0.0188,0.0188,0.0183,0.0183,0.0192,0.0192,0.0222,0.0223,0.0313,0,0,0,0.0167,0.0168,0.0175,0.0175,0.0175,0.0183,0.0182,0.0188,0.0188,0.0183,0.0192,0.0192,0.0222,0.0223,0.0309,0.037,0,0,0,0.0168,0.0168,0.017,0.0175,0.0178,0.0183,0.0184,0.0188,0.0188,0.0192,0.0192,0.0222,0.0223,0.0306,0.0364,0.0446,0,0,0,0.0166,0.0192,0.017,0.0198,0.0178,0.0216,0.0184,0.0205,0.0214,0.0192,0.0222,0.0223,0.0306,0.036,0.0442,0.0471,0.0493,0,0,0.0202,0.0196,0.0214,0.0195,0.0248,0.0214,0.0273,0.0262,0.0224,0.0219,0.022,0.0311,0.0363,0.0445,0.0523,0.0545,0,0,0,0.0228,0.0244,0.0256,0.0277,0.0288,0.0326,0.0304,0.0299,0.0301,0.0231,0.0304,0.0335,0.0384,0.0391,0.0408,0.0227,0.0227,0.0227,0.0227,0.0282,0.0291,0.0341,0.0361,0.0385,0.0401,0.0427,0.0413,0.0358,0.037,0.0402,0.052,0.0527,0.054,0.0383,0.0384,0.0384,0.0384,0.0384,0.0358,0.0395,0.0413,0.0464,0.0494,0.0539,0.0557,0.0533,0.0564,0.0484,0.0527,0.0478,0.0565,0.0391,0.039,0.0389,0.0388,0.0388,0.0387,0.0402,0.0426,0.045,0.0534,0.0614,0.0645,0.0758,0.0725,0.067,0.0702,0.0708,0.0706,0.0599,0.0722,0.0723,0.0724,0.0724,0.0725,0.0725,0.044,0.047,0.054,0.0619,0.0694,0.0806,0.0882,0.092,0.0901,0.0829,0.0828,0.0635,0.0623,0.0619,0.0735,0.0733,0.0732,0.0731,0.073,0.0508,0.0515,0.0625,0.07,0.088,0.1038,0.1098,0.1172,0.1169,0.1158,0.0901,0.0893,0.0876,0.086,0.0861,0.1034,0.1034,0.1034,0.1034,0.0552,0.0563,0.0717,0.0853,0.1031,0.1153,0.1348,0.1332,0.1208,0.1075,0.1073,0.0984,0.0971,0.0952,0.0934,0.0933,0.1125,0.1125,0.1125,0.0612,0.0649,0.0772,0.0896,0.1099,0.129,0.1443,0.14,0.1175,0.1125,0.1057,0.1046,0.0903,0.0888,0.0843,0.0821,0.0812,0,0]}],[{"header":{"parameterUnit":"m.s-1","parameterCategory":2,"la1":30.2992,"la2":30.254,"lo1":-89.0895,"lo2":-89.0443,"dy":0.0025,"dx":0.0025,"nx":19,"ny":19,"refTime":"2026-04-15T03:00:00:Z","depth":"4","parameterNumber":2,"parameterNumberName":"U-component_of_CURRENTS"},"data":[0,0,0,0.1491,0.1493,0.1617,0.1617,0.1708,0.1708,0,0,0,0,0,0,0,0,0,0,0,0.1461,0.1462,0.1491,0.1493,0.1617,0.1617,0.1708,0.1708,0,0,0,0,0,0,0,0,0,0,0,0.146,0.1462,0.1463,0.1494,0.1617,0.1617,0.1708,0.1633,0,0,0,0,0,0,0,0,0,0,0.1522,0.1506,0.1461,0.1463,0.1495,0.1616,0.1617,0.163,0.1637,0.1631,0,0.1662,0,0.1679,0.1712,0.1713,0,0,0,0.1499,0.15,0.1526,0.1463,0.1496,0.1616,0.1563,0.1634,0.1643,0.164,0.1664,0.1667,0.168,0.1713,0.1713,0.1808,0.1808,0,0,0.1492,0.1487,0.1521,0.1532,0.1542,0.1559,0.1566,0.164,0.1657,0.1664,0.167,0.1682,0.1713,0.1714,0.1807,0.1808,0,0,0,0.1469,0.1482,0.1508,0.1528,0.1551,0.1562,0.1571,0.1655,0.1662,0.1671,0.1683,0.1714,0.1714,0.1807,0.1808,0.1865,0,0,0,0.1465,0.1468,0.1505,0.1504,0.155,0.1614,0.1584,0.1658,0.1666,0.1682,0.1714,0.1715,0.1806,0.1807,0.1862,0.1862,0,0,0,0.1452,0.1466,0.1484,0.1503,0.1552,0.1613,0.1626,0.166,0.1672,0.1713,0.1715,0.1806,0.1807,0.1859,0.1858,0.1916,0,0,0,0.1437,0.1458,0.1484,0.1517,0.1551,0.1605,0.1626,0.1681,0.1717,0.1714,0.1806,0.1807,0.1858,0.1856,0.1913,0.1666,0,0,0,0.1444,0.146,0.1476,0.1501,0.1533,0.1588,0.1657,0.1717,0.1736,0.1776,0.1779,0.1863,0.1858,0.1915,0.1751,0,0,0,0,0.1464,0.1473,0.1487,0.1524,0.1569,0.1636,0.1703,0.1745,0.1828,0.1764,0.1875,0.187,0.1905,0.1753,0.1814,0.1814,0.1814,0.1814,0.1814,0.1457,0.1477,0.1498,0.1536,0.1583,0.1682,0.1752,0.1827,0.1847,0.1904,0.1927,0.2019,0.1862,0.1951,0.1952,0.1952,0.1952,0.1952,0.1953,0.1441,0.144,0.1498,0.1528,0.1609,0.1689,0.1818,0.1878,0.2,0.1987,0.202,0.1835,0.1959,0.1957,0.1956,0.1956,0.1955,0.1955,0.1955,0.1411,0.1405,0.1453,0.1512,0.1604,0.1718,0.1822,0.1946,0.2035,0.2088,0.1952,0.2061,0.2045,0.2131,0.2132,0.2132,0.2132,0.2132,0.2133,0.1342,0.1378,0.1403,0.1491,0.1544,0.1663,0.1849,0.192,0.2041,0.1976,0.2119,0.2079,0.2073,0.2055,0.2137,0.2136,0.2136,0.2135,0.2135,0.1254,0.1295,0.1318,0.1364,0.1462,0.1528,0.1737,0.1833,0.19,0.1893,0.1919,0.1928,0.1883,0.1883,0.1855,0.1882,0.1879,0.1876,0,0.119,0.1211,0.1217,0.1241,0.128,0.142,0.1457,0.1582,0.1705,0.1647,0.1885,0.1908,0.1915,0.1858,0.1853,0.1816,0,0,0,0.1127,0.1145,0.1121,0.1154,0.1169,0.1274,0.1455,0.1454,0.1687,0.1689,0.1804,0.1822,0.1992,0.215,0.2104,0.2097,0.2065,0,0]},{"header":{"parameterUnit":"m.s-1","parameterCategory":2,"la1":30.2992,"la2":30.254,"lo1":-89.0895,"lo2":-89.0443,"dy":0.0025,"dx":0.0025,"nx":19,"ny":19,"refTime":"2026-04-15T03:00:00:Z","depth":"4","parameterNumber":3,"parameterNumberName":"V-component_of_CURRENTS"},"data":[0,0,0,0.0134,0.0135,0.0149,0.0149,0.0147,0.0146,0,0,0,0,0,0,0,0,0,0,0,0.0134,0.0134,0.0134,0.0135,0.0149,0.0149,0.0147,0.0146,0,0,0,0,0,0,0,0,0,0,0,0.0133,0.0134,0.0134,0.0135,0.0149,0.0149,0.0147,0.0142,0,0,0,0,0,0,0,0,0,0,0.0131,0.0132,0.0134,0.0134,0.0135,0.0149,0.0149,0.0142,0.0142,0.0132,0,0.0136,0,0.0137,0.0145,0.0145,0,0,0,0.0139,0.0132,0.0134,0.0134,0.0135,0.0149,0.0144,0.0142,0.0143,0.0132,0.0136,0.0136,0.0137,0.0145,0.0145,0.015,0.0151,0,0,0.0138,0.0138,0.0134,0.0134,0.014,0.0143,0.0144,0.0143,0.0144,0.0136,0.0136,0.0137,0.0145,0.0145,0.015,0.015,0,0,0,0.0133,0.0137,0.0139,0.0134,0.0136,0.0144,0.0145,0.0144,0.0145,0.0136,0.0136,0.0145,0.0145,0.015,0.015,0.0225,0,0,0,0.0133,0.0134,0.0139,0.0139,0.0136,0.0143,0.0147,0.0145,0.0145,0.0136,0.0145,0.0145,0.015,0.015,0.0222,0.0268,0,0,0,0.0133,0.0134,0.0135,0.0139,0.0143,0.0143,0.0144,0.0145,0.0145,0.0145,0.0145,0.015,0.015,0.022,0.0264,0.0287,0,0,0,0.0132,0.015,0.0136,0.0157,0.0143,0.0171,0.0144,0.0158,0.0163,0.0145,0.015,0.015,0.022,0.0261,0.0284,0.0288,0,0,0,0.0157,0.0153,0.0167,0.0155,0.0197,0.0169,0.0211,0.0198,0.0163,0.0149,0.0149,0.0223,0.0263,0.0286,0.0312,0,0,0,0,0.0177,0.0191,0.02,0.0219,0.0227,0.0254,0.0234,0.0221,0.0212,0.0166,0.0211,0.0234,0.0246,0.0239,0.0152,0.0152,0.0152,0.0152,0.0152,0.0215,0.0225,0.0267,0.0286,0.0302,0.0309,0.0322,0.0298,0.0255,0.0255,0.0285,0.0342,0.0338,0.0265,0.0266,0.0266,0.0266,0.0267,0.0267,0.027,0.03,0.0322,0.0366,0.0389,0.0421,0.0415,0.0391,0.0387,0.0338,0.0345,0.0307,0.0274,0.0272,0.0271,0.0271,0.027,0.027,0.0269,0.0299,0.032,0.0347,0.0418,0.0485,0.0506,0.0564,0.0533,0.0466,0.0478,0.0446,0.0391,0.0395,0.0473,0.0473,0.0473,0.0474,0.0474,0.0474,0.0317,0.0349,0.0409,0.0483,0.0548,0.0626,0.0654,0.0648,0.0587,0.0539,0.0499,0.0412,0.0405,0.0405,0.0479,0.0478,0.0477,0.0477,0.0477,0.0353,0.037,0.0458,0.0525,0.067,0.0728,0.0759,0.0724,0.0709,0.0658,0.0557,0.0552,0.0525,0.0515,0.0518,0.0628,0.0628,0.0629,0,0.0377,0.0391,0.0511,0.062,0.0738,0.0791,0.0807,0.0789,0.0694,0.068,0.0686,0.0574,0.0568,0.0537,0.0529,0.0534,0,0,0,0.0408,0.0442,0.053,0.0636,0.0769,0.0799,0.0813,0.0786,0.0715,0.0695,0.0638,0.0635,0.0571,0.0493,0.0438,0.043,0.0428,0,0]}]]